Vancouver, WA

12:33 AM PST on December 11, 2016 (GMT -0800)
Portland International

Weather History for KPDX - July, 2013

Change the Weather History Date:

Wednesday, July 17, 2013

  Actual Average Record
Temperature  
Mean Temperature 69 °F 70 °F  
Max Temperature 77 °F 81 °F 102 °F (1979)
Min Temperature 61 °F 58 °F 49 °F (1955)
Degree Days  
Heating Degree Days 0 0  
Month to date heating degree days 1 15  
Since 1 June heating degree days 50 106  
Since 1 July heating degree days 1 15  
Cooling Degree Days 4 5  
Month to date cooling degree days 92 68  
Year to date cooling degree days 174 132  
Since 1 June cooling degree days 159 115  
Growing Degree Days 20 (Base 50)    
Moisture  
Dew Point 54 °F    
Average Humidity 62    
Maximum Humidity 78    
Minimum Humidity 46    
Precipitation  
Precipitation 0.00 in 0.02 in 0.67 in (2011)
Month to date precipitation T 0.42  
Year to date precipitation 14.50 19.54  
Snow  
Snow 0.00 in - - ()
Month to date snowfall 0.0  
Since 1 June snowfall 0.0  
Snow Depth 0.00 in    
Sea Level Pressure  
Sea Level Pressure 30.12 in    
Wind  
Wind Speed 7 mph (SW)    
Max Wind Speed 13 mph    
Max Gust Speed 26 mph    
Visibility 10 miles    
Events      
T = Trace of Precipitation, MM = Missing Value Source: NWS Daily Summary

Daily Weather History Graph

Daily Weather History Graph

Search for Another Location

Airport or City:

Trip Planner

Search our weather history database for the weather conditions in past years. The results will help you decide how hot, cold, wet, or windy it might be!

Date:

Astronomy

Jul. 17, 2013 Rise Set
Actual Time 5:38 AM PDT 8:54 PM PDT
Civil Twilight 5:01 AM PDT 9:30 PM PDT
Nautical Twilight 4:14 AM PDT 10:17 PM PDT
Astronomical Twilight 3:15 AM PDT 11:15 PM PDT
Moon 3:46 PM PDT (7/17) 12:54 AM PDT (7/17)
Length of Visible Light 16h 28m
Length of Day
15h 16m
Waxing Gibbous, 68% of the Moon is Illuminated
Jul 17
Waxing Gibbous
Jul 22
Full
Jul 29
Last Quarter
Aug 6
New
Aug 14
First Quarter

Hourly Weather History & Observations

Time (PDT) Temp. Dew Point Humidity Pressure Visibility Wind Dir Wind Speed Gust Speed Precip Events Conditions
12:53 AM 64.9 °F 54.0 °F 68% 30.00 in 10.0 mi South 8.1 mph - N/A   Scattered Clouds
1:53 AM 63.0 °F 54.0 °F 72% 30.02 in 10.0 mi South 9.2 mph - N/A   Mostly Cloudy
2:53 AM 62.1 °F 54.0 °F 75% 30.04 in 10.0 mi SE 6.9 mph - N/A   Mostly Cloudy
3:53 AM 61.0 °F 54.0 °F 78% 30.06 in 10.0 mi SSE 4.6 mph - N/A   Mostly Cloudy
4:42 AM 62.6 °F 53.6 °F 72% 30.08 in 10.0 mi South 6.9 mph - N/A   Mostly Cloudy
4:53 AM 62.1 °F 54.0 °F 75% 30.07 in 10.0 mi South 8.1 mph - N/A   Mostly Cloudy
5:36 AM 62.6 °F 53.6 °F 72% 30.09 in 10.0 mi South 9.2 mph - N/A   Mostly Cloudy
5:53 AM 62.1 °F 53.1 °F 72% 30.09 in 10.0 mi South 5.8 mph - N/A   Mostly Cloudy
6:53 AM 63.0 °F 53.1 °F 70% 30.11 in 10.0 mi South 8.1 mph - N/A   Overcast
7:53 AM 63.0 °F 52.0 °F 67% 30.12 in 10.0 mi SSW 11.5 mph - N/A   Overcast
8:53 AM 64.0 °F 53.1 °F 67% 30.15 in 10.0 mi South 6.9 mph - N/A   Overcast
9:53 AM 64.9 °F 52.0 °F 63% 30.15 in 10.0 mi SW 8.1 mph - N/A   Overcast
10:53 AM 64.9 °F 52.0 °F 63% 30.17 in 10.0 mi South 8.1 mph - N/A   Overcast
11:53 AM 66.0 °F 52.0 °F 60% 30.17 in 10.0 mi SW 5.8 mph - N/A   Overcast
12:53 PM 68.0 °F 52.0 °F 56% 30.17 in 10.0 mi Calm Calm - N/A   Mostly Cloudy
1:53 PM 70.0 °F 52.0 °F 53% 30.17 in 10.0 mi Calm Calm - N/A   Partly Cloudy
2:53 PM 73.0 °F 52.0 °F 48% 30.16 in 10.0 mi NW 9.2 mph - N/A   Partly Cloudy
3:53 PM 73.9 °F 53.1 °F 48% 30.15 in 10.0 mi NW 8.1 mph - N/A   Partly Cloudy
4:53 PM 75.0 °F 54.0 °F 48% 30.14 in 10.0 mi WNW 11.5 mph - N/A   Partly Cloudy
5:53 PM 77.0 °F 55.9 °F 48% 30.13 in 10.0 mi NW 8.1 mph - N/A   Partly Cloudy
6:53 PM 75.9 °F 57.0 °F 52% 30.12 in 10.0 mi NNW 5.8 mph - N/A   Partly Cloudy
7:53 PM 73.9 °F 55.0 °F 52% 30.12 in 10.0 mi NW 10.4 mph - N/A   Partly Cloudy
8:53 PM 70.0 °F 57.0 °F 63% 30.14 in 10.0 mi NW 6.9 mph - N/A   Clear
9:53 PM 66.9 °F 55.9 °F 68% 30.16 in 10.0 mi NNW 8.1 mph - N/A   Clear
10:53 PM 64.9 °F 55.0 °F 70% 30.17 in 10.0 mi NW 9.2 mph - N/A   Clear
11:53 PM 63.0 °F 54.0 °F 72% 30.18 in 10.0 mi NW 10.4 mph - N/A   Clear